Location: D�rnast
(49.6426°N, 11.9755°E)
Time: 07:14:40
(UTC+00:00)

N. Korean satellite - Pass Details

Date: 02 December 2021
Orbit: 446 x 491 km, 97.3° (Epoch: 18 January)

Event Time Altitude Azimuth Distance (km) Brightness Sun altitude
Rises 16:18:00 0° 195° (SSW) 2,540 10.8 -9.9°
Reaches altitude 10° 16:20:22 10° 210° (SSW) 1,656 10.1 -10.3°
Maximum altitude 16:23:17 24° 266° (W) 1,042 9.2 -10.7°
Drops below altitude 10° 16:26:12 10° 321° (NW) 1,645 9.5 -11.2°
Sets 16:28:40 0° 337° (NNW) 2,573 10.3 -11.5°
